SL-14 R/B, 27061

Orbit data source: Space-Track

SL-14 R/B, 27061 is space debris in LEO originally from a launch on Fri, 28 Dec 2001 UTC launched from the Plesetsk Missile And Space Complex (PKMTR). Debris objects in space refer to the collection of defunct objects orbiting the Earth. Examples of debris include non-operational satellites, rocket bodies, and fragments generated from explosions, collisions, or faulty payload assembly.

Loading next visibility...
Identifier
27061, 2001-058G
Orbit
LEO
Country
Flag of CISCIS
Related business
Manufacturer
Yuzhnoe
Mission
Spacecraft
Bus & Motor
S5M, Unknown motor
Mass
1,600 kg wet, 1,600 kg dry
Launch date (UTC)
2001-12-28 (24 years ago)
Launch vehicle
Unknown
Launch site
Plesetsk Missile And Space Complex (PKMTR)
Object type
Payload
Rocket body
Debris
Shape & HBR
Cyl, 1.4 m
Radar Cross Section
7.351 m², Large (>1 m²)

Expand to show TLE details & history
Last TLE update: 23 hours ago

TLE from 23 hours ago
0 SL-14 R/B
1 27061U 01058G   25260.00900904  .00000019  00000-0  54133-4 0  9997
2 27061  82.5399 106.7677 0043593   4.4660 165.3648 12.53952771 85785
Epoch: 2025-09-17T00:12Z
TLE epoch observation values (Epoch: 2025-09-17T00:12:58.381Z)
Latitude
9.90629°
Longitude
-73.97062°
Altitude
1,483.013 km
Speed
7.108 km/s
True Right ascension
19h 01m 51s
True Declination
9° 51' 13"
Sunlit
Object was in daylight at epoch
Visualization orbit readout
Latitude
Unknown
Longitude
Unknown
Altitude
Unknown
Speed
Unknown
Apparent Right ascension
Unknown
Apparent Declination
Unknown
Sunlit
N/A
Visualization observer readout
Local Sidereal Time
16:15:49
Azimuth
Unknown
Elevation
Unknown
Doppler factor
Unknown
Orbital elements
Apogee altitude
1,479.444 km
Perigee altitude
1,411.234 km
Semi-major axis
7,823.476 km
Eccentricity
0.00436
Inclination
82.5399°
RAAN
106.7677°
Arg. of periapsis
4.466°
True anomaly
165.49035°
Mean anomaly
165.3648°
Eccentric anomaly
165.42764°
Mean motion
3.13649 °/min
Orbital period
114.78 mins
BSTAR
0.000054133
Loading maneuver chart data...
Computing Atmospheric mass density...
Loading historical data...
Loading historical data...
Loading historical data...
Loading historical data...
Loading historical data...
Loading historical data...
Loading historical data...

Documentation

Showing up to 5 results
|